EN

Hourly Weather Labapa

Today, 30 July, Friday

Time Temperature Precipitation Wind Pressure Humidity
00:00 +17°C° 0.1 mm 2 mps 745 mmHg 85%
01:00 +17°C° 0 mm 2 mps 745 mmHg 85%
02:00 +17°C° 0 mm 2 mps 745 mmHg 85%
03:00 +16°C° 0 mm 2 mps 744 mmHg 86%
04:00 +16°C° 0 mm 3 mps 744 mmHg 87%
05:00 +17°C° 0 mm 3 mps 744 mmHg 80%
06:00 +18°C° 0 mm 3 mps 744 mmHg 73%
07:00 +19°C° 0 mm 4 mps 744 mmHg 67%
08:00 +20°C° 0 mm 5 mps 744 mmHg 60%
09:00 +21°C° 0 mm 6 mps 744 mmHg 53%
10:00 +23°C° 0 mm 7 mps 744 mmHg 46%
11:00 +23°C° 0 mm 7 mps 744 mmHg 44%
12:00 +23°C° 0 mm 7 mps 744 mmHg 42%
13:00 +24°C° 0 mm 7 mps 743 mmHg 41%
14:00 +24°C° 0 mm 7 mps 743 mmHg 42%
15:00 +24°C° 0 mm 6 mps 743 mmHg 43%
16:00 +25°C° 0 mm 5 mps 743 mmHg 45%
17:00 +23°C° 0 mm 5 mps 742 mmHg 51%
18:00 +21°C° 0 mm 4 mps 742 mmHg 57%
19:00 +19°C° 0 mm 3 mps 742 mmHg 63%
20:00 +18°C° 0 mm 3 mps 743 mmHg 64%
21:00 +17°C° 0 mm 3 mps 743 mmHg 65%
22:00 +16°C° 0 mm 3 mps 743 mmHg 66%
23:00 +16°C° 0 mm 3 mps 743 mmHg 68%

Tomorrow, 31 July, Saturday

Time Temperature Precipitation Wind Pressure Humidity
00:00 +14°C° 0 mm 3 mps 743 mmHg 70%
01:00 +14°C° 0 mm 3 mps 743 mmHg 72%
02:00 +13°C° 0 mm 3 mps 743 mmHg 73%
03:00 +13°C° 0 mm 3 mps 743 mmHg 74%
04:00 +13°C° 0 mm 3 mps 743 mmHg 75%
05:00 +14°C° 0 mm 3 mps 743 mmHg 71%
06:00 +17°C° 0 mm 3 mps 743 mmHg 67%
07:00 +19°C° 0 mm 3 mps 744 mmHg 62%
08:00 +20°C° 0 mm 3 mps 744 mmHg 59%
09:00 +22°C° 0 mm 3 mps 744 mmHg 56%
10:00 +24°C° 0 mm 3 mps 744 mmHg 53%
11:00 +25°C° 0 mm 3 mps 743 mmHg 51%
12:00 +26°C° 0 mm 4 mps 743 mmHg 49%
13:00 +27°C° 0 mm 4 mps 743 mmHg 47%
14:00 +26°C° 0 mm 3 mps 743 mmHg 52%
15:00 +25°C° 0 mm 3 mps 742 mmHg 57%
16:00 +24°C° 0 mm 2 mps 742 mmHg 62%
17:00 +22°C° 0.7 mm 3 mps 742 mmHg 71%
18:00 +21°C° 0.7 mm 3 mps 742 mmHg 81%
19:00 +19°C° 0.7 mm 3 mps 742 mmHg 90%
20:00 +19°C° 0 mm 3 mps 742 mmHg 91%
21:00 +18°C° 0 mm 3 mps 742 mmHg 93%
22:00 +17°C° 0 mm 4 mps 742 mmHg 94%
23:00 +17°C° 0 mm 4 mps 742 mmHg 93%

Day after tomorrow, 1 August, Sunday

Time Temperature Precipitation Wind Pressure Humidity
00:00 +16°C° 0 mm 3 mps 742 mmHg 92%
01:00 +14°C° 0 mm 3 mps 742 mmHg 91%
02:00 +14°C° 0 mm 3 mps 742 mmHg 89%
03:00 +14°C° 0 mm 3 mps 742 mmHg 88%
04:00 +13°C° 0 mm 3 mps 743 mmHg 87%
05:00 +14°C° 0 mm 4 mps 743 mmHg 82%
06:00 +17°C° 0 mm 4 mps 743 mmHg 78%
07:00 +17°C° 0 mm 5 mps 743 mmHg 74%
08:00 +19°C° 0 mm 4 mps 743 mmHg 67%
09:00 +21°C° 0 mm 4 mps 744 mmHg 61%
10:00 +22°C° 0 mm 4 mps 744 mmHg 54%
11:00 +23°C° 0 mm 4 mps 744 mmHg 54%
12:00 +23°C° 0 mm 4 mps 744 mmHg 54%
13:00 +23°C° 0 mm 4 mps 744 mmHg 54%
14:00 +21°C° 0.8 mm 4 mps 744 mmHg 67%
15:00 +19°C° 0.8 mm 4 mps 744 mmHg 79%
16:00 +17°C° 0.8 mm 3 mps 744 mmHg 92%
17:00 +16°C° 0.2 mm 3 mps 744 mmHg 92%
18:00 +16°C° 0.2 mm 2 mps 744 mmHg 91%
19:00 +16°C° 0.2 mm 1 mps 743 mmHg 90%
20:00 +15°C° 0 mm 2 mps 744 mmHg 91%
21:00 +14°C° 0 mm 2 mps 744 mmHg 93%
22:00 +13°C° 0 mm 2 mps 744 mmHg 94%
23:00 +13°C° 0 mm 2 mps 744 mmHg 95%

2 August, Monday

Time Temperature Precipitation Wind Pressure Humidity
00:00 +13°C° 0 mm 2 mps 743 mmHg 95%
01:00 +13°C° 0 mm 2 mps 743 mmHg 96%
02:00 +13°C° 0 mm 2 mps 743 mmHg 95%
03:00 +13°C° 0 mm 2 mps 743 mmHg 95%
04:00 +13°C° 0 mm 2 mps 743 mmHg 94%
05:00 +15°C° 0 mm 2 mps 743 mmHg 90%
06:00 +16°C° 0 mm 2 mps 743 mmHg 85%
07:00 +17°C° 0 mm 2 mps 743 mmHg 81%
08:00 +18°C° 0 mm 3 mps 743 mmHg 73%
09:00 +20°C° 0 mm 3 mps 743 mmHg 65%
10:00 +21°C° 0 mm 4 mps 743 mmHg 58%
11:00 +21°C° 0.4 mm 4 mps 743 mmHg 61%
12:00 +21°C° 0.4 mm 5 mps 743 mmHg 65%
13:00 +21°C° 0.4 mm 5 mps 744 mmHg 69%
14:00 +20°C° 0.6 mm 5 mps 744 mmHg 72%
15:00 +20°C° 0.6 mm 5 mps 744 mmHg 75%
16:00 +19°C° 0.6 mm 4 mps 744 mmHg 78%
17:00 +18°C° 0.2 mm 4 mps 744 mmHg 80%
18:00 +17°C° 0.2 mm 3 mps 744 mmHg 83%
19:00 +16°C° 0.2 mm 2 mps 744 mmHg 85%
20:00 +16°C° 0 mm 2 mps 745 mmHg 86%
21:00 +14°C° 0 mm 3 mps 745 mmHg 88%
22:00 +13°C° 0 mm 3 mps 745 mmHg 89%
23:00 +13°C° 0 mm 3 mps 746 mmHg 89%

3 August, Tuesday

Time Temperature Precipitation Wind Pressure Humidity
00:00 +12°C° 0 mm 3 mps 746 mmHg 89%
01:00 +12°C° 0 mm 3 mps 746 mmHg 89%
02:00 +11°C° 0 mm 4 mps 746 mmHg 90%
03:00 +11°C° 0 mm 4 mps 746 mmHg 90%
04:00 +11°C° 0 mm 4 mps 746 mmHg 91%
05:00 +12°C° 0 mm 4 mps 747 mmHg 85%
06:00 +14°C° 0 mm 4 mps 747 mmHg 80%
07:00 +15°C° 0 mm 5 mps 747 mmHg 75%
08:00 +17°C° 0 mm 5 mps 747 mmHg 69%
09:00 +19°C° 0 mm 5 mps 747 mmHg 63%
10:00 +21°C° 0 mm 5 mps 747 mmHg 57%
11:00 +21°C° 0.1 mm 5 mps 747 mmHg 56%
12:00 +21°C° 0.1 mm 5 mps 747 mmHg 54%
13:00 +22°C° 0.1 mm 5 mps 747 mmHg 53%
14:00 +22°C° 0.1 mm 4 mps 748 mmHg 54%
15:00 +22°C° 0.1 mm 4 mps 748 mmHg 55%
16:00 +22°C° 0.1 mm 3 mps 748 mmHg 56%
17:00 +20°C° 0.1 mm 3 mps 748 mmHg 63%
18:00 +19°C° 0.1 mm 2 mps 748 mmHg 69%
19:00 +19°C° 0.1 mm 1 mps 748 mmHg 75%
20:00 +18°C° 0 mm 1 mps 748 mmHg 79%
21:00 +16°C° 0 mm 1 mps 748 mmHg 82%
22:00 +15°C° 0 mm 1 mps 748 mmHg 86%
23:00 +15°C° 0 mm 1 mps 748 mmHg 86%

4 August, Wednesday

Time Temperature Precipitation Wind Pressure Humidity
00:00 +14°C° 0 mm 1 mps 748 mmHg 86%
01:00 +13°C° 0 mm 0 mps 748 mmHg 85%
02:00 +14°C° 0 mm 1 mps 749 mmHg 85%
03:00 +15°C° 0 mm 1 mps 749 mmHg 85%
04:00 +15°C° 0 mm 1 mps 749 mmHg 85%
05:00 +15°C° 0.1 mm 1 mps 749 mmHg 85%
06:00 +16°C° 0.1 mm 1 mps 749 mmHg 85%
07:00 +16°C° 0.1 mm 1 mps 749 mmHg 85%
08:00 +16°C° 0.2 mm 1 mps 749 mmHg 86%
09:00 +16°C° 0.2 mm 1 mps 749 mmHg 86%
10:00 +18°C° 0.2 mm 1 mps 749 mmHg 86%
11:00 +19°C° 0.1 mm 1 mps 749 mmHg 82%
12:00 +20°C° 0.1 mm 1 mps 749 mmHg 77%
13:00 +19°C° 0.1 mm 2 mps 749 mmHg 73%
14:00 +20°C° 0.1 mm 2 mps 749 mmHg 70%
15:00 +20°C° 0.1 mm 2 mps 748 mmHg 68%
16:00 +21°C° 0.1 mm 2 mps 748 mmHg 65%
17:00 +20°C° 0.1 mm 2 mps 748 mmHg 70%
18:00 +18°C° 0.1 mm 2 mps 748 mmHg 76%
19:00 +17°C° 0.1 mm 2 mps 748 mmHg 81%
20:00 +17°C° 0 mm 2 mps 748 mmHg 84%
21:00 +16°C° 0 mm 2 mps 748 mmHg 86%
22:00 +16°C° 0 mm 2 mps 748 mmHg 89%
23:00 +16°C° 0.7 mm 3 mps 748 mmHg 91%
Show more